Myrtle Beach, SC

9:24 AM EST on February 23, 2017 (GMT -0500)
Myrtle Beach International

Weather History for KMYR - April, 2014

Change the Weather History Date:

Tuesday, April 29, 2014

  Actual Average Record
Temperature  
Mean Temperature 74 °F -  
Max Temperature 78 °F 71 °F 90 °F (2002)
Min Temperature 69 °F 54 °F 42 °F (1992)
Cooling Degree Days 8    
Growing Degree Days 24 (Base 50)    
Moisture  
Dew Point 69 °F    
Average Humidity 88    
Maximum Humidity 94    
Minimum Humidity 74    
Precipitation  
Precipitation 0.00 in - - ()
Sea Level Pressure  
Sea Level Pressure 29.94 in    
Wind  
Wind Speed 10 mph (South)    
Max Wind Speed 21 mph    
Max Gust Speed 25 mph    
Visibility 8 miles    
Events Fog    
Averages and records for this station are not official NWS values.
T = Trace of Precipitation, MM = Missing Value Source: NWS Daily Summary

Daily Weather History Graph

Daily Weather History Graph

Search for Another Location

Airport or City:

Trip Planner

Search our weather history database for the weather conditions in past years. The results will help you decide how hot, cold, wet, or windy it might be!

Date:

Astronomy

Apr. 29, 2014 Rise Set
Actual Time 6:29 AM EDT 7:57 PM EDT
Civil Twilight 6:02 AM EDT 8:23 PM EDT
Nautical Twilight 5:31 AM EDT 8:55 PM EDT
Astronomical Twilight 4:58 AM EDT 9:28 PM EDT
Moon 6:45 AM EDT (4/29) 8:34 PM EDT (4/29)
Length of Visible Light 14h 21m
Length of Day
13h 28m
New Moon, 0% of the Moon is Illuminated
Apr 29
New Moon
May 6
First Quarter
May 14
Full
May 21
Last Quarter
May 28
New

Hourly Weather History & Observations

Time (EDT) Temp. Dew Point Humidity Pressure Visibility Wind Dir Wind Speed Gust Speed Precip Events Conditions
12:15 AM 69.8 °F 66.2 °F 88% 29.91 in 10.0 mi SSW 6.9 mph - N/A   Clear
12:35 AM 71.6 °F 68.0 °F 88% 29.90 in 10.0 mi SSW 8.1 mph - N/A   Clear
12:55 AM 71.6 °F 68.0 °F 88% 29.90 in 10.0 mi SSW 11.5 mph - N/A   Mostly Cloudy
1:15 AM 71.6 °F 69.8 °F 94% 29.90 in 8.0 mi SSW 8.1 mph 17.3 mph N/A   Overcast
1:35 AM 71.6 °F 69.8 °F 94% 29.89 in 7.0 mi SSW 12.7 mph - N/A   Overcast
1:55 AM 71.6 °F 69.8 °F 94% 29.88 in 10.0 mi SSW 10.4 mph 17.3 mph N/A   Overcast
2:15 AM 73.4 °F 69.8 °F 88% 29.87 in 10.0 mi SSW 13.8 mph - N/A   Overcast
2:35 AM 73.4 °F 69.8 °F 88% 29.88 in 10.0 mi SSW 11.5 mph 20.7 mph N/A   Overcast
2:55 AM 73.4 °F 69.8 °F 88% 29.88 in 10.0 mi SSW 11.5 mph 18.4 mph N/A   Overcast
3:15 AM 73.4 °F 69.8 °F 88% 29.89 in 10.0 mi SSW 11.5 mph - N/A   Overcast
3:35 AM 73.4 °F 69.8 °F 88% 29.90 in 10.0 mi SSW 6.9 mph - N/A   Overcast
3:55 AM 71.6 °F 69.8 °F 94% 29.90 in 10.0 mi SSW 9.2 mph - N/A   Overcast
4:15 AM 71.6 °F 69.8 °F 94% 29.90 in 10.0 mi South 8.1 mph - N/A   Overcast
4:35 AM 71.6 °F 69.8 °F 94% 29.89 in 10.0 mi South 8.1 mph - N/A   Mostly Cloudy
4:55 AM 71.6 °F 68.0 °F 88% 29.89 in 10.0 mi South 6.9 mph - N/A   Scattered Clouds
5:15 AM 71.6 °F 68.0 °F 88% 29.90 in 9.0 mi SSW 5.8 mph - N/A   Partly Cloudy
5:35 AM 71.6 °F 69.8 °F 94% 29.91 in 10.0 mi South 6.9 mph - N/A   Mostly Cloudy
5:55 AM 71.6 °F 69.8 °F 94% 29.91 in 10.0 mi South 6.9 mph - N/A   Scattered Clouds
6:55 AM 69.8 °F 66.2 °F 88% 29.93 in 0.5 mi South 9.2 mph - N/A Fog Fog
7:45 AM 71.6 °F 69.8 °F 94% 29.96 in 5.0 mi SSW 5.8 mph - N/A   Mostly Cloudy
8:45 AM 73.4 °F 69.8 °F 88% 29.97 in 7.0 mi South 11.5 mph - N/A   Mostly Cloudy
10:02 AM 75.2 °F 69.8 °F 83% 29.97 in 5.0 mi South 13.8 mph - N/A   Mostly Cloudy
10:54 AM 78.8 °F 69.8 °F 74% 29.96 in 7.0 mi South 11.5 mph - N/A   Scattered Clouds
11:45 AM 78.8 °F 69.8 °F 74% 29.96 in 7.0 mi South 20.7 mph - N/A   Scattered Clouds
1:45 PM 78.8 °F 69.8 °F 74% 29.95 in 8.0 mi South 17.3 mph - N/A   Scattered Clouds
2:50 PM 78.8 °F 71.6 °F 78% 29.93 in 8.0 mi South 17.3 mph 25.3 mph N/A   Scattered Clouds
4:45 PM 75.2 °F 71.6 °F 89% 29.93 in 7.0 mi South 18.4 mph 25.3 mph N/A   Scattered Clouds
5:14 PM 75.2 °F 69.8 °F 83% 29.94 in 7.0 mi South 13.8 mph 23.0 mph N/A   Overcast
5:45 PM 75.2 °F 69.8 °F 83% 29.94 in 7.0 mi South 13.8 mph 23.0 mph N/A   Overcast
6:08 PM 75.2 °F 69.8 °F 83% 29.95 in 5.0 mi SSW 12.7 mph 20.7 mph N/A   Overcast
6:45 PM 73.4 °F 69.8 °F 88% 29.95 in 5.0 mi SSW 12.7 mph 20.7 mph N/A   Overcast
7:45 PM 73.4 °F 69.8 °F 88% 29.97 in 5.0 mi South 10.4 mph - N/A   Overcast
8:50 PM 73.4 °F 69.8 °F 88% 30.00 in 6.0 mi South 10.4 mph - N/A   Overcast
9:45 PM 71.6 °F 69.8 °F 94% 30.02 in 6.0 mi South 10.4 mph - N/A   Overcast
10:55 PM 71.6 °F 69.8 °F 94% 30.04 in 10.0 mi SE 6.9 mph - N/A   Partly Cloudy
11:15 PM 71.6 °F 68.0 °F 88% 30.05 in 10.0 mi SSE 8.1 mph - N/A   Clear
11:35 PM 71.6 °F 68.0 °F 88% 30.04 in 10.0 mi SSE 10.4 mph - N/A   Scattered Clouds
11:55 PM 71.6 °F 68.0 °F 88% 30.05 in 10.0 mi SSE 8.1 mph - N/A   Mostly Cloudy